Погода в Таежном

Россия / Красноярский край     58°04′17″N   97°18′55″E
темп.,
°C
ветер,
м/с
пор.,
м/с
влажн.,
%
обл.,
%
осадки,
мм/ч
давл.,
гПа
погр.,
м
23 октября, сб
сб2301:00+4з3127698 0.0 1017303
04:00+6з41177100 0.0 10191020
07:00+4зюз51174100 0.3 10211070
10:00+4зюз5106484 0.0 10221290
13:00+4зюз51059100 0.0 10221377
16:00+4юз5105996 0.0 10211416
19:00+3юз51160100 0.0 10201142
22:00+2юз61358100 0.0 10181152
24 октября, вс
вс2401:00+2ююз61366100 0.0 10151127
04:00+1ююз61592100 0.1 10131157
07:00+2юз61496100 0.6 10121147
10:00+2юз61496100 0.2 1011999
13:00+3юз51496100 0.6 10101127
16:00+3юз61596100 0.3 10101166
19:00+3зюз61596100 1.0 10101244
22:00+4зюз61389100 0.4 10111094
25 октября, пн
пн2501:00+3зюз61290100 1.0 10121141
04:00+4з51279100 0.2 10141230
07:00+3зюз6128298 0.2 10161144
10:00+4зюз51177100 0.1 10171142
13:00+3зюз41183100 0.1 10171178
16:00+4ююз31083100 0.0 1014795
19:00+5ююз61394100 0.3 10101040
22:00+7юз71983100 2.4 10051608
26 октября, вт
вт2601:00+6зюз8188379 4.1 10051740
04:00+4з81576100 0.4 10081433
07:00+2з71486100 0.6 10131124
10:00+2зсз5976100 0.1 10181030
13:00+2з3674100 0.1 1020953
16:00+1зюз2470100 0.0 1020914
19:000ююв2584100 0.0 1018124
22:00+1ююв31082100 0.0 1015376
27 октября, ср
ср2701:00+2ююв41282100 0.3 1011428
04:00+3ю51678100 0.0 1007456
07:00+4ююз51778100 0.0 1005696
10:00+7зюз71765100 0.0 10061502
13:00+2з61761100 0.1 10121519
16:000з6136493 0.0 10171423
19:00−2з513655 0.0 10201374
22:00−3з512635 0.0 10231282